Main page
Satellite images Climate Cyclones Lightning AirportsFAQ Languages Contact Newsletter About
Weather : Europe Africa North America South America Asia Australia-Oceania Others

ho-chi-minh-vn, Ho Chi Minh City, Tan Son Nhat International Airport

latitude: , longitude: Vietnam, elevation: 10-49N m


METAR: VVTS 121030Z VRB03KT 8000 SCT017 29/24 Q1010 NOSIG